Lid_Strength_Index
8 8 8 8 7 7 7 7 6 7 7 7 8 8 8 8 8 10 13 12 13 14 13 13 12 14 14 14 14 13 13 12 12 15 13 13 14 13 14 12 13 14 15 16 15 17 19 9 9 13 10 8 9 8
8 8 8 8 8 7 7 6 6 7 7 8 8 8 8 8 8 8 13 11 11 13 13 12 11 10 10 10 12 13 13 11 10 14 13 12 16 14 13 16 10 15 13 15 14 14 10 8 9 7 6 7 7 8
8 8 8 8 8 7 7 6 6 6 7 8 8 8 8 8 8 8 12 12 11 13 13 15 13 10 9 8 8 13 12 9 10 7 9 13 14 11 14 14 13 10 9 12 12 10 9 8 7 6 6 7 7 7
8 8 8 8 8 7 7 6 6 6 7 8 7 8 8 7 8 8 10 11 10 13 16 15 10 10 8 9 9 8 8 8 6 6 9 10 12 9 12 12 12 10 10 12 12 9 8 7 7 6 7 6 7 7
8 8 8 8 8 7 7 6 6 6 7 7 7 8 7 8 8 9 11 11 9 14 16 14 11 10 8 8 9 8 8 10 7 8 10 11 9 9 10 12 13 10 11 13 12 8 8 8 6 6 6 6 7 8
8 8 8 8 8 7 6 6 6 6 7 7 7 8 8 8 8 12 14 10 9 9 13 16 12 11 9 7 7 8 8 10 9 8 8 8 7 9 12 13 11 9 8 7 9 6 6 6 5 6 7 8 8 8
8 8 8 7 7 7 6 6 6 6 7 7 8 8 8 8 10 13 15 10 8 10 13 14 15 11 9 7 6 5 6 7 7 7 8 8 8 8 11 13 10 8 7 6 5 6 7 7 8 8 8 8 7 8
7 7 7 8 8 7 6 6 6 7 7 7 7 7 7 8 9 11 10 8 7 11 10 14 16 13 9 10 10 6 7 6 7 8 8 9 9 9 12 10 9 7 6 6 5 6 7 8 9 9 8 8 9 9
7 7 7 8 7 7 6 7 7 7 7 7 7 7 9 10 12 11 6 6 7 9 12 12 14 16 9 10 10 7 6 10 7 9 9 9 10 12 9 8 8 7 7 7 6 7 8 9 9 8 8 9 10 10
7 7 7 8 7 6 7 8 8 7 7 7 8 10 11 9 7 6 8 10 10 10 10 13 11 13 10 9 10 11 7 10 12 10 8 11 11 7 7 6 6 6 6 7 8 9 9 10 10 9 10 9 10 9
7 7 7 7 6 6 8 8 8 8 8 12 14 14 12 9 11 13 14 12 12 13 11 11 11 12 8 9 10 9 12 10 13 11 11 12 12 9 7 7 5 5 7 6 7 8 9 10 10 9 9 9 9 10
6 7 7 7 6 7 8 9 8 10 11 12 12 11 11 13 14 15 15 11 12 13 11 12 12 10 9 7 9 8 11 10 14 8 12 14 10 9 9 8 7 5 5 7 7 8 9 9 9 9 9 10 10 10
6 7 7 6 7 8 9 8 8 8 8 10 12 13 14 15 19 16 16 15 15 12 11 12 14 12 11 6 9 9 12 13 8 12 13 11 10 10 10 8 6 4 6 6 7 7 8 9 9 10 11 11 10 11
7 6 6 6 7 8 8 8 8 8 10 12 13 18 16 17 15 14 14 14 13 12 13 14 14 13 12 10 9 12 10 10 13 15 15 11 11 11 10 7 5 5 6 6 7 7 9 9 10 10 10 11 11 12
7 6 6 7 8 8 8 8 8 9 11 13 13 19 16 14 14 13 13 14 13 13 14 14 14 13 10 10 9 10 12 14 14 15 13 11 11 10 9 7 5 5 5 7 6 7 9 9 10 11 11 11 12 11
6 7 9 8 8 8 8 8 9 10 11 12 14 16 15 15 15 15 14 13 12 12 12 11 11 11 11 10 14 14 16 19 15 12 11 10 10 10 8 7 5 4 4 5 6 6 7 9 10 11 11 11 12 11
8 10 8 8 8 8 7 10 10 11 13 13 15 14 15 15 15 14 13 12 11 13 14 12 13 13 10 14 16 13 14 12 11 11 10 10 10 10 8 7 5 4 4 5 6 6 7 7 10 11 12 11 11 12
11 9 8 8 8 9 10 10 11 12 14 14 15 14 14 13 13 12 11 11 11 12 12 12 10 13 15 15 14 11 10 10 10 10 10 8 9 9 8 8 6 5 4 4 7 7 6 7 9 11 12 12 11 11
9 8 8 7 9 10 11 11 10 13 13 13 13 13 12 12 11 11 11 11 10 10 11 12 13 14 12 10 10 10 10 10 11 10 10 8 8 9 9 8 7 7 6 4 5 8 7 7 8 10 12 12 13 12
7 7 7 7 9 10 11 11 9 13 14 13 13 13 12 12 11 12 12 12 12 13 13 12 12 10 9 8 8 9 9 8 9 10 11 9 9 9 9 9 8 8 7 6 5 7 7 9 8 8 10 12 12 13
9 8 8 9 11 10 11 11 13 12 13 14 12 12 13 12 13 13 14 12 13 14 14 11 10 8 6 6 7 8 8 8 9 9 10 10 9 9 9 9 9 8 9 8 8 6 8 9 9 9 9 10 11 12
10 8 10 10 11 10 12 11 12 12 13 13 13 11 12 13 14 14 13 14 14 14 11 10 9 8 7 8 7 7 8 8 8 8 9 9 10 10 10 9 9 9 9 9 9 8 5 6 8 8 9 9 10 10
8 9 10 10 12 13 14 11 13 13 14 14 13 12 12 13 12 11 14 13 12 10 11 8 8 7 7 6 6 7 7 8 8 8 9 10 9 9 9 9 9 10 10 9 8 8 7 8 7 8 8 9 10 10
8 11 12 12 13 15 11 13 12 13 13 14 14 13 12 12 11 13 14 12 10 10 9 9 8 8 7 7 8 8 8 8 8 7 8 9 9 10 9 9 9 9 9 9 9 8 8 7 8 6 9 8 8 9
14 15 15 18 13 14 14 13 13 13 14 13 13 13 12 11 14 14 15 15 13 10 9 9 8 8 8 8 8 9 9 10 10 10 8 9 10 10 11 10 10 10 9 10 10 10 9 8 8 7 5 8 9 9
18 15 16 14 14 14 14 14 14 14 13 13 13 11 11 13 14 15 15 14 14 10 9 9 9 8 8 8 10 11 11 11 11 10 10 10 11 11 12 12 12 12 10 10 10 11 10 10 9 8 7 7 10 9
18 16 14 11 12 12 13 12 12 13 13 14 13 12 12 14 14 12 12 12 12 9 7 7 7 8 8 9 10 11 11 11 11 11 9 11 11 11 12 12 12 12 10 10 10 11 11 11 10 10 9 7 6 8
14 13 15 14 13 13 13 13 13 13 13 11 11 12 13 14 14 10 10 10 9 8 7 7 7 7 7 8 10 12 12 11 10 10 10 11 11 11 11 10 10 11 10 11 11 11 11 11 11 10 9 9 7 6
14 12 12 14 13 13 12 12 12 11 10 10 11 12 12 10 8 11 11 9 9 9 10 10 10 9 8 10 11 12 12 12 12 13 14 14 13 13 11 10 11 11 11 11 12 12 12 11 11 11 11 9 8 5
14 12 14 13 13 13 11 10 11 10 10 10 10 10 11 12 11 10 10 10 10 11 10 10 10 10 10 12 12 12 12 12 12 13 14 15 14 12 11 11 11 11 12 12 12 12 12 11 12 11 12 11 11 9
11 12 12 12 11 10 10 10 9 10 10 10 10 11 12 11 9 8 8 9 10 10 10 10 10 10 11 11 12 12 13 12 11 11 12 12 12 12 11 11 10 11 12 12 12 13 13 13 13 13 13 14 13 12
12 12 12 12 12 9 8 9 10 11 11 12 13 11 12 12 12 10 8 9 10 10 9 8 10 10 10 10 10 10 10 11 11 11 11 11 12 11 11 11 10 11 12 12 12 13 14 14 14 14 14 14 14 14
12 12 11 11 13 10 9 9 9 10 11 11 11 10 11 13 14 11 7 8 9 10 10 9 9 9 9 9 10 10 10 9 10 11 11 11 12 12 12 12 11 11 12 13 14 14 15 15 16 16 15 15 15 15